EN

Hourly Weather Bartno

Today, 17 January, Sunday

Time Temperature Precipitation Wind Pressure Humidity
00:00 -21°C° 0 mm 3 mps 752 mmHg 93%
01:00 -20°C° 0 mm 2 mps 752 mmHg 94%
02:00 -20°C° 0 mm 2 mps 753 mmHg 93%
03:00 -20°C° 0 mm 2 mps 753 mmHg 93%
04:00 -21°C° 0 mm 2 mps 753 mmHg 93%
05:00 -21°C° 0 mm 2 mps 753 mmHg 92%
06:00 -19°C° 0 mm 1 mps 753 mmHg 90%
07:00 -21°C° 0 mm 2 mps 754 mmHg 90%
08:00 -18°C° 0 mm 1 mps 754 mmHg 88%
09:00 -17°C° 0 mm 1 mps 754 mmHg 86%
10:00 -16°C° 0 mm 1 mps 755 mmHg 84%
11:00 -15°C° 0 mm 1 mps 755 mmHg 82%
12:00 -14°C° 0 mm 1 mps 755 mmHg 79%
13:00 -13°C° 0 mm 1 mps 756 mmHg 77%
14:00 -14°C° 0 mm 0 mps 755 mmHg 80%
15:00 -15°C° 0 mm 0 mps 755 mmHg 83%
16:00 -16°C° 0 mm 0 mps 755 mmHg 87%
17:00 -16°C° 0 mm 0 mps 755 mmHg 86%
18:00 -17°C° 0 mm 0 mps 755 mmHg 86%
19:00 -17°C° 0 mm 0 mps 756 mmHg 86%
20:00 -17°C° 0 mm 0 mps 756 mmHg 86%
21:00 -17°C° 0 mm 1 mps 756 mmHg 86%
22:00 -17°C° 0 mm 1 mps 756 mmHg 85%
23:00 -17°C° 0 mm 1 mps 756 mmHg 86%

Tomorrow, 18 January, Monday

Time Temperature Precipitation Wind Pressure Humidity
00:00 -17°C° 0 mm 1 mps 756 mmHg 86%
01:00 -19°C° 0 mm 2 mps 756 mmHg 86%
02:00 -19°C° 0 mm 2 mps 755 mmHg 87%
03:00 -18°C° 0 mm 2 mps 755 mmHg 87%
04:00 -18°C° 0 mm 2 mps 755 mmHg 87%
05:00 -18°C° 0 mm 2 mps 755 mmHg 87%
06:00 -18°C° 0 mm 2 mps 755 mmHg 87%
07:00 -18°C° 0 mm 2 mps 755 mmHg 86%
08:00 -17°C° 0 mm 2 mps 755 mmHg 86%
09:00 -16°C° 0 mm 2 mps 755 mmHg 87%
10:00 -16°C° 0 mm 2 mps 754 mmHg 87%
11:00 -16°C° 0 mm 3 mps 754 mmHg 87%
12:00 -15°C° 0 mm 3 mps 754 mmHg 87%
13:00 -14°C° 0 mm 3 mps 754 mmHg 88%
14:00 -15°C° 0 mm 3 mps 754 mmHg 89%
15:00 -15°C° 0 mm 3 mps 753 mmHg 91%
16:00 -16°C° 0 mm 3 mps 753 mmHg 92%
17:00 -16°C° 0 mm 3 mps 753 mmHg 92%
18:00 -16°C° 0 mm 3 mps 752 mmHg 92%
19:00 -16°C° 0 mm 3 mps 752 mmHg 92%
20:00 -17°C° 0 mm 4 mps 752 mmHg 91%
21:00 -16°C° 0 mm 4 mps 751 mmHg 90%
22:00 -15°C° 0 mm 4 mps 751 mmHg 89%
23:00 -15°C° 0 mm 4 mps 751 mmHg 90%

Day after tomorrow, 19 January, Tuesday

Time Temperature Precipitation Wind Pressure Humidity
00:00 -14°C° 0 mm 4 mps 750 mmHg 91%
01:00 -14°C° 0 mm 4 mps 750 mmHg 92%
02:00 -12°C° 0.2 mm 4 mps 749 mmHg 93%
03:00 -11°C° 0.2 mm 4 mps 748 mmHg 94%
04:00 -12°C° 0.2 mm 5 mps 748 mmHg 94%
05:00 -10°C° 0.4 mm 4 mps 748 mmHg 95%
06:00 -9°C° 0.4 mm 4 mps 747 mmHg 95%
07:00 -9°C° 0.4 mm 4 mps 747 mmHg 95%
08:00 -8°C° 0.3 mm 4 mps 747 mmHg 96%
09:00 -5°C° 0.3 mm 3 mps 747 mmHg 96%
10:00 -4°C° 0.3 mm 3 mps 746 mmHg 97%
11:00 -2°C° 0.1 mm 3 mps 746 mmHg 98%
12:00 -1°C° 0.1 mm 3 mps 746 mmHg 98%
13:00 -1°C° 0.1 mm 3 mps 746 mmHg 99%
14:00 -1°C° 0 mm 3 mps 746 mmHg 99%
15:00 -1°C° 0 mm 3 mps 745 mmHg 98%
16:00 -1°C° 0 mm 3 mps 745 mmHg 97%
17:00 -1°C° 0.1 mm 3 mps 745 mmHg 97%
18:00 -1°C° 0.1 mm 3 mps 745 mmHg 97%
19:00 -2°C° 0.1 mm 4 mps 745 mmHg 97%
20:00 -2°C° 0.2 mm 4 mps 744 mmHg 97%
21:00 -2°C° 0.2 mm 4 mps 744 mmHg 97%
22:00 -2°C° 0.2 mm 5 mps 744 mmHg 97%
23:00 -2°C° 0.1 mm 5 mps 744 mmHg 97%

20 January, Wednesday

Time Temperature Precipitation Wind Pressure Humidity
00:00 -2°C° 0.1 mm 5 mps 743 mmHg 97%
01:00 -4°C° 0.1 mm 5 mps 743 mmHg 96%
02:00 -4°C° 0.1 mm 5 mps 743 mmHg 96%
03:00 -4°C° 0.1 mm 5 mps 742 mmHg 95%
04:00 -4°C° 0.1 mm 5 mps 742 mmHg 95%
05:00 -2°C° 0.1 mm 5 mps 742 mmHg 95%
06:00 -2°C° 0.1 mm 5 mps 741 mmHg 95%
07:00 -2°C° 0.1 mm 5 mps 741 mmHg 96%
08:00 -1°C° 0.2 mm 5 mps 741 mmHg 97%
09:00 -1°C° 0.2 mm 5 mps 741 mmHg 98%
10:00 0°C° 0.2 mm 5 mps 742 mmHg 99%
11:00 -1°C° 0.1 mm 5 mps 741 mmHg 99%
12:00 -1°C° 0.1 mm 5 mps 741 mmHg 99%
13:00 -1°C° 0.1 mm 5 mps 741 mmHg 99%
14:00 -1°C° 0.2 mm 5 mps 741 mmHg 99%
15:00 -2°C° 0.2 mm 6 mps 741 mmHg 98%
16:00 -2°C° 0.2 mm 6 mps 741 mmHg 98%
17:00 -2°C° 0.1 mm 6 mps 741 mmHg 97%
18:00 -2°C° 0.1 mm 6 mps 742 mmHg 97%
19:00 -2°C° 0.1 mm 6 mps 742 mmHg 97%
20:00 -1°C° 0.1 mm 5 mps 742 mmHg 96%
21:00 -1°C° 0.1 mm 5 mps 742 mmHg 96%
22:00 -1°C° 0.1 mm 5 mps 742 mmHg 95%
23:00 -1°C° 0 mm 5 mps 742 mmHg 94%

21 January, Thursday

Time Temperature Precipitation Wind Pressure Humidity
00:00 -1°C° 0 mm 5 mps 742 mmHg 92%
01:00 -1°C° 0 mm 5 mps 742 mmHg 91%
02:00 -1°C° 0 mm 5 mps 742 mmHg 89%
03:00 -2°C° 0 mm 5 mps 742 mmHg 88%
04:00 -2°C° 0 mm 5 mps 741 mmHg 87%
05:00 -2°C° 0 mm 5 mps 741 mmHg 86%
06:00 -2°C° 0 mm 5 mps 741 mmHg 85%
07:00 -2°C° 0 mm 5 mps 741 mmHg 85%
08:00 -2°C° 0 mm 5 mps 741 mmHg 84%
09:00 -2°C° 0 mm 5 mps 741 mmHg 84%
10:00 -1°C° 0 mm 5 mps 741 mmHg 83%
11:00 -1°C° 0 mm 5 mps 741 mmHg 87%
12:00 -1°C° 0 mm 5 mps 741 mmHg 92%
13:00 0°C° 0 mm 5 mps 741 mmHg 96%
14:00 0°C° 0 mm 5 mps 741 mmHg 95%
15:00 0°C° 0 mm 5 mps 740 mmHg 93%
16:00 0°C° 0 mm 5 mps 740 mmHg 91%
17:00 0°C° 0 mm 5 mps 740 mmHg 90%
18:00 -1°C° 0 mm 6 mps 740 mmHg 90%
19:00 -1°C° 0 mm 6 mps 740 mmHg 89%
20:00 -1°C° 0 mm 6 mps 740 mmHg 90%
21:00 -1°C° 0 mm 5 mps 740 mmHg 91%
22:00 -1°C° 0 mm 5 mps 740 mmHg 92%
23:00 -1°C° 0 mm 5 mps 740 mmHg 92%

22 January, Friday

Time Temperature Precipitation Wind Pressure Humidity
00:00 -1°C° 0 mm 5 mps 740 mmHg 92%
01:00 -2°C° 0 mm 5 mps 740 mmHg 92%
02:00 -2°C° 0 mm 5 mps 740 mmHg 92%
03:00 -2°C° 0 mm 5 mps 740 mmHg 92%
04:00 -2°C° 0 mm 5 mps 740 mmHg 92%
05:00 -2°C° 0 mm 4 mps 740 mmHg 92%
06:00 -2°C° 0 mm 4 mps 740 mmHg 91%
07:00 -2°C° 0 mm 4 mps 740 mmHg 90%
08:00 -2°C° 0 mm 4 mps 740 mmHg 90%
09:00 -2°C° 0 mm 4 mps 740 mmHg 89%
10:00 -1°C° 0 mm 4 mps 740 mmHg 89%
11:00 -1°C° 0 mm 4 mps 740 mmHg 91%
12:00 -1°C° 0 mm 4 mps 740 mmHg 94%
13:00 0°C° 0 mm 4 mps 739 mmHg 96%
14:00 0°C° 0 mm 4 mps 739 mmHg 96%
15:00 0°C° 0 mm 4 mps 738 mmHg 96%
16:00 0°C° 0 mm 4 mps 738 mmHg 95%
17:00 -1°C° 0 mm 4 mps 737 mmHg 96%
18:00 -1°C° 0 mm 4 mps 737 mmHg 97%
19:00 -1°C° 0 mm 4 mps 736 mmHg 97%
20:00 -1°C° 0 mm 4 mps 736 mmHg 97%
21:00 -1°C° 0 mm 4 mps 736 mmHg 96%
22:00 0°C° 0 mm 3 mps 736 mmHg 96%
23:00 0°C° 0 mm 3 mps 736 mmHg 96%
Show more

We Need Your Consent

Meteoprog and our Service Providers may store and access personal data such as cookies, device identifiers or other similar technologies on your device and process such data to personalise content and ads, as well as provide social media features and to analyse the traffic.

  • Store and/or access information on your device

    Cookies, device identifiers or other information can be stored or accessed on your device for the purposes indicated above.

  • Personalised ads and content, ad and content measurement, audience insights, and products development

    Ads and content can be personalised based on a profile. More data can be added to better personalise ads and content. Ad and content performance can be measured. Insights about the audience who saw the ads and content can be derived. Such data can be used to develop or improve user’s experience, systems and software.

By clicking ‘I Agree’ you will allow the use of indicated cookies, device identifiers, web beacons or other similar technologies. Your settings can be changed in the browser on your device.

For certain purposes, legitimate interests may be relied on, rather than consent. You can read more about this in our Privacy and Cookie Policy.